| time (UTC) | temp F | wind direction | speed MPH | gust MPH | rain 1hr in | rain 24hr in | rain mn in | humidity % | barometer mb |
| 20260905234204 | 54 | 249 | 1.0 | 2.0 | 0.00 | 0.02 | 0.00 | 86 | 1024.6 |
| 20260905233704 | 54 | 241 | 1.0 | 2.0 | 0.00 | 0.02 | 0.00 | 86 | 1024.6 |
| 20260905233203 | 54 | 246 | 1.0 | 3.0 | 0.00 | 0.02 | 0.00 | 86 | 1024.6 |
| 20260905232704 | 54 | 236 | 2.0 | 3.0 | 0.00 | 0.02 | 0.00 | 86 | 1024.5 |
| 20260905231204 | 54 | 230 | 1.0 | 2.0 | 0.00 | 0.02 | 0.00 | 86 | 1024.5 |
| 20260905230704 | 54 | 248 | 1.0 | 3.0 | 0.00 | 0.02 | 0.00 | 86 | 1024.4 |
| 20260905230204 | 54 | 249 | 1.0 | 3.0 | 0.00 | 0.02 | 0.00 | 86 | 1024.5 |
| 20260905225703 | 54 | 254 | 2.0 | 3.0 | 0.00 | 0.02 | 0.00 | 85 | 1024.3 |
| 20260905225204 | 54 | 271 | 1.0 | 3.0 | 0.00 | 0.02 | 0.00 | 85 | 1024.3 |
| 20260905224704 | 55 | 244 | 1.0 | 2.0 | 0.00 | 0.02 | 0.00 | 85 | 1024.3 |
| 20260905224204 | 55 | 228 | 1.0 | 3.0 | 0.00 | 0.02 | 0.00 | 85 | 1024.3 |
| 20260905223204 | 55 | 254 | 1.0 | 3.0 | 0.00 | 0.02 | 0.00 | 85 | 1024.3 |
| 20260905222204 | 55 | 236 | 2.0 | 3.0 | 0.00 | 0.02 | 0.00 | 85 | 1024.2 |
| 20260905221204 | 55 | 252 | 2.0 | 5.0 | 0.00 | 0.02 | 0.00 | 85 | 1024.0 |
| 20260905220704 | 55 | 244 | 3.0 | 7.0 | 0.00 | 0.02 | 0.00 | 85 | 1024.1 |
| 20260905220204 | 55 | 241 | 1.0 | 7.0 | 0.00 | 0.02 | 0.00 | 85 | 1024.0 |
| 20260905215704 | 55 | 226 | 1.0 | 3.0 | 0.00 | 0.02 | 0.02 | 84 | 1023.9 |
| 20260905215203 | 55 | 237 | 1.0 | 3.0 | 0.00 | 0.02 | 0.02 | 84 | 1023.9 |
| 20260905214703 | 55 | 228 | 2.0 | 3.0 | 0.00 | 0.02 | 0.02 | 84 | 1023.8 |
| 20260905214204 | 55 | 235 | 1.0 | 3.0 | 0.00 | 0.02 | 0.02 | 84 | 1023.8 |
| 20260905213704 | 56 | 227 | 1.0 | 3.0 | 0.00 | 0.02 | 0.02 | 84 | 1023.7 |
| 20260905213204 | 56 | 250 | 2.0 | 3.0 | 0.00 | 0.02 | 0.02 | 83 | 1023.8 |
| 20260905212704 | 56 | 238 | 2.0 | 5.0 | 0.00 | 0.02 | 0.02 | 83 | 1023.8 |
| 20260905212205 | 56 | 223 | 1.0 | 3.0 | 0.00 | 0.02 | 0.02 | 83 | 1023.7 |
| 20260905211704 | 56 | 243 | 2.0 | 6.0 | 0.00 | 0.02 | 0.02 | 83 | 1023.7 |
| 20260905211204 | 57 | 243 | 2.0 | 3.0 | 0.00 | 0.02 | 0.02 | 83 | 1023.7 |
| 20260905210704 | 57 | 243 | 2.0 | 5.0 | 0.00 | 0.02 | 0.02 | 83 | 1023.6 |
| 20260905210204 | 57 | 241 | 3.0 | 5.0 | 0.00 | 0.02 | 0.02 | 83 | 1023.6 |
| 20260905205703 | 57 | 245 | 2.0 | 5.0 | 0.00 | 0.02 | 0.02 | 82 | 1023.6 |
| 20260905204704 | 57 | 251 | 2.0 | 5.0 | 0.00 | 0.02 | 0.02 | 82 | 1023.6 |
| 20260905204203 | 57 | 241 | 1.0 | 6.0 | 0.00 | 0.02 | 0.02 | 82 | 1023.6 |
| 20260905203704 | 57 | 230 | 2.0 | 5.0 | 0.00 | 0.02 | 0.02 | 82 | 1023.6 |
| 20260905203204 | 58 | 275 | 2.0 | 5.0 | 0.00 | 0.02 | 0.02 | 81 | 1023.5 |
| 20260905202704 | 58 | 262 | 2.0 | 3.0 | 0.00 | 0.02 | 0.02 | 81 | 1023.6 |
| 20260905202205 | 58 | 248 | 2.0 | 3.0 | 0.00 | 0.02 | 0.02 | 81 | 1023.6 |
| 20260905201704 | 58 | 246 | 2.0 | 5.0 | 0.00 | 0.02 | 0.02 | 81 | 1023.5 |
| 20260905201204 | 58 | 263 | 2.0 | 6.0 | 0.00 | 0.02 | 0.02 | 81 | 1023.5 |
| 20260905200705 | 58 | 258 | 3.0 | 9.0 | 0.00 | 0.02 | 0.02 | 81 | 1023.4 |
| 20260905200204 | 58 | 250 | 5.0 | 8.0 | 0.00 | 0.02 | 0.02 | 80 | 1023.4 |
| 20260905195704 | 58 | 256 | 3.0 | 7.0 | 0.00 | 0.02 | 0.02 | 80 | 1023.4 |
| 20260905195204 | 59 | 245 | 3.0 | 7.0 | 0.00 | 0.02 | 0.02 | 80 | 1023.4 |
| 20260905194205 | 59 | 237 | 2.0 | 7.0 | 0.00 | 0.02 | 0.02 | 79 | 1023.3 |
| 20260905193702 | 59 | 259 | 3.0 | 6.0 | 0.00 | 0.02 | 0.02 | 79 | 1023.2 |
| 20260905193202 | 59 | 263 | 2.0 | 6.0 | 0.00 | 0.02 | 0.02 | 79 | 1023.2 |
| 20260905192203 | 60 | 258 | 2.0 | 7.0 | 0.00 | 0.02 | 0.02 | 78 | 1023.0 |
| 20260905191702 | 60 | 252 | 3.0 | 9.0 | 0.00 | 0.02 | 0.02 | 78 | 1023.0 |
| 20260905191203 | 60 | 256 | 2.0 | 7.0 | 0.00 | 0.02 | 0.02 | 78 | 1022.9 |
| 20260905190702 | 60 | 264 | 2.0 | 8.0 | 0.00 | 0.02 | 0.02 | 78 | 1022.9 |
| 20260905190202 | 60 | 277 | 3.0 | 7.0 | 0.00 | 0.02 | 0.02 | 77 | 1022.9 |
| 20260905185702 | 61 | 277 | 4.0 | 9.0 | 0.00 | 0.02 | 0.02 | 77 | 1022.8 |
| 20260905185203 | 61 | 250 | 3.0 | 9.0 | 0.00 | 0.02 | 0.02 | 77 | 1022.8 |
| 20260905184702 | 61 | 268 | 5.0 | 10.0 | 0.00 | 0.02 | 0.02 | 77 | 1022.8 |
| 20260905184203 | 61 | 272 | 5.0 | 10.0 | 0.00 | 0.02 | 0.02 | 77 | 1022.7 |
| 20260905183702 | 61 | 259 | 5.0 | 9.0 | 0.00 | 0.02 | 0.02 | 76 | 1022.7 |
| 20260905183203 | 61 | 257 | 4.0 | 9.0 | 0.00 | 0.02 | 0.02 | 76 | 1022.7 |
| 20260905182703 | 61 | 240 | 4.0 | 9.0 | 0.00 | 0.02 | 0.02 | 76 | 1022.5 |
| 20260905182202 | 62 | 263 | 5.0 | 12.0 | 0.00 | 0.02 | 0.02 | 75 | 1022.4 |
| 20260905181704 | 62 | 273 | 5.0 | 12.0 | 0.00 | 0.02 | 0.02 | 75 | 1022.4 |
| 20260905181203 | 62 | 277 | 6.0 | 12.0 | 0.00 | 0.02 | 0.02 | 75 | 1022.3 |
| 20260905180203 | 62 | 287 | 7.0 | 13.0 | 0.00 | 0.02 | 0.02 | 74 | 1022.2 |
| 20260905175703 | 62 | 287 | 5.0 | 10.0 | 0.00 | 0.02 | 0.02 | 74 | 1022.2 |
| 20260905175203 | 63 | 266 | 5.0 | 8.0 | 0.00 | 0.02 | 0.02 | 74 | 1022.1 |
| 20260905174703 | 63 | 264 | 5.0 | 14.0 | 0.00 | 0.02 | 0.02 | 74 | 1022.1 |
| 20260905174202 | 63 | 271 | 5.0 | 10.0 | 0.00 | 0.02 | 0.02 | 74 | 1022.1 |
| 20260905173703 | 63 | 281 | 7.0 | 9.0 | 0.00 | 0.02 | 0.02 | 73 | 1022.1 |
| 20260905172204 | 64 | 268 | 5.0 | 12.0 | 0.00 | 0.02 | 0.02 | 71 | 1022.0 |
| 20260905171702 | 64 | 273 | 8.0 | 14.0 | 0.00 | 0.02 | 0.02 | 70 | 1022.0 |
| 20260905171203 | 64 | 272 | 9.0 | 15.0 | 0.00 | 0.02 | 0.02 | 70 | 1021.9 |
| 20260905170703 | 64 | 277 | 10.0 | 18.0 | 0.00 | 0.02 | 0.02 | 69 | 1021.7 |
| 20260905170203 | 64 | 260 | 7.0 | 16.0 | 0.00 | 0.02 | 0.02 | 69 | 1021.8 |
| 20260905165703 | 64 | 290 | 9.0 | 16.0 | 0.00 | 0.02 | 0.02 | 69 | 1021.7 |
| 20260905165203 | 65 | 270 | 8.0 | 14.0 | 0.00 | 0.02 | 0.02 | 68 | 1021.7 |
| 20260905164202 | 65 | 281 | 7.0 | 12.0 | 0.00 | 0.02 | 0.02 | 67 | 1021.6 |
| 20260905163702 | 65 | 295 | 8.0 | 14.0 | 0.00 | 0.02 | 0.02 | 66 | 1021.5 |
| 20260905163203 | 65 | 292 | 10.0 | 20.0 | 0.00 | 0.02 | 0.02 | 65 | 1021.4 |
| 20260905162203 | 66 | 272 | 12.0 | 23.0 | 0.00 | 0.02 | 0.02 | 63 | 1021.3 |
| 20260905161203 | 67 | 268 | 13.0 | 20.0 | 0.00 | 0.02 | 0.02 | 62 | 1021.1 |
| 20260905160703 | 67 | 260 | 9.0 | 20.0 | 0.00 | 0.02 | 0.02 | 64 | 1021.0 |
| 20260905160203 | 67 | 270 | 9.0 | 20.0 | 0.00 | 0.02 | 0.02 | 64 | 1021.0 |
| 20260905155703 | 67 | 268 | 10.0 | 20.0 | 0.00 | 0.02 | 0.02 | 62 | 1020.8 |
| 20260905155203 | 68 | 265 | 7.0 | 18.0 | 0.00 | 0.02 | 0.02 | 65 | 1020.8 |
| 20260905154702 | 67 | 294 | 10.0 | 18.0 | 0.00 | 0.02 | 0.02 | 66 | 1020.8 |
| 20260905153703 | 68 | 271 | 9.0 | 18.0 | 0.00 | 0.02 | 0.02 | 64 | 1020.7 |
| 20260905153203 | 68 | 288 | 13.0 | 21.0 | 0.00 | 0.02 | 0.02 | 64 | 1020.7 |
| 20260905152703 | 68 | 282 | 11.0 | 20.0 | 0.00 | 0.02 | 0.02 | 64 | 1020.6 |
| 20260905152203 | 67 | 284 | 10.0 | 17.0 | 0.00 | 0.02 | 0.02 | 66 | 1020.6 |
| 20260905151703 | 67 | 286 | 10.0 | 20.0 | 0.00 | 0.02 | 0.02 | 65 | 1020.5 |
| 20260905151203 | 67 | 285 | 12.0 | 22.0 | 0.00 | 0.02 | 0.02 | 65 | 1020.5 |
| 20260905150703 | 68 | 291 | 13.0 | 21.0 | 0.00 | 0.02 | 0.02 | 64 | 1020.4 |
| 20260905150204 | 69 | 274 | 7.0 | 18.0 | 0.00 | 0.02 | 0.02 | 65 | 1020.3 |
| 20260905145704 | 69 | 271 | 13.0 | 20.0 | 0.00 | 0.02 | 0.02 | 63 | 1020.3 |
| 20260905145203 | 69 | 271 | 10.0 | 25.0 | 0.00 | 0.02 | 0.02 | 64 | 1020.1 |
| 20260905144705 | 69 | 288 | 11.0 | 21.0 | 0.00 | 0.02 | 0.02 | 64 | 1020.3 |
| 20260905144203 | 68 | 289 | 12.0 | 20.0 | 0.00 | 0.02 | 0.02 | 64 | 1020.3 |
| 20260905143704 | 67 | 290 | 10.0 | 20.0 | 0.00 | 0.02 | 0.02 | 65 | 1020.2 |
| 20260905143203 | 67 | 282 | 10.0 | 26.0 | 0.00 | 0.02 | 0.02 | 65 | 1020.1 |
| 20260905142703 | 68 | 285 | 12.0 | 20.0 | 0.00 | 0.02 | 0.02 | 64 | 1020.1 |
| 20260905142204 | 69 | 294 | 10.0 | 20.0 | 0.00 | 0.02 | 0.02 | 64 | 1020.0 |
| 20260905141703 | 69 | 283 | 10.0 | 20.0 | 0.00 | 0.02 | 0.02 | 65 | 1019.8 |
| 20260905141204 | 68 | 279 | 12.0 | 18.0 | 0.00 | 0.02 | 0.02 | 66 | 1019.8 |
| 20260905140703 | 68 | 270 | 10.0 | 20.0 | 0.00 | 0.02 | 0.02 | 65 | 1019.8 |
| 20260905140203 | 69 | 284 | 12.0 | 22.0 | 0.00 | 0.02 | 0.02 | 63 | 1019.8 |
| 20260905135703 | 69 | 281 | 12.0 | 20.0 | 0.00 | 0.02 | 0.02 | 63 | 1019.7 |
| 20260905135204 | 68 | 248 | 9.0 | 20.0 | 0.00 | 0.02 | 0.02 | 68 | 1019.6 |
| 20260905134703 | 67 | 281 | 12.0 | 20.0 | 0.00 | 0.02 | 0.02 | 68 | 1019.7 |
| 20260905134204 | 67 | 284 | 12.0 | 20.0 | 0.00 | 0.02 | 0.02 | 68 | 1019.7 |
| 20260905133703 | 67 | 278 | 7.0 | 16.0 | 0.00 | 0.02 | 0.02 | 68 | 1019.5 |
| 20260905133203 | 67 | 284 | 16.0 | 23.0 | 0.00 | 0.02 | 0.02 | 66 | 1019.6 |
| 20260905131704 | 67 | 288 | 14.0 | 26.0 | 0.00 | 0.04 | 0.02 | 68 | 1019.4 |
| 20260905131204 | 67 | 276 | 8.0 | 15.0 | 0.00 | 0.08 | 0.02 | 68 | 1019.2 |
| 20260905130704 | 67 | 265 | 12.0 | 20.0 | 0.00 | 0.08 | 0.02 | 68 | 1019.2 |
| 20260905130203 | 67 | 266 | 13.0 | 25.0 | 0.00 | 0.08 | 0.02 | 67 | 1019.3 |
| 20260905125204 | 67 | 283 | 10.0 | 18.0 | 0.00 | 0.08 | 0.02 | 71 | 1019.1 |
| 20260905124703 | 68 | 258 | 13.0 | 21.0 | 0.00 | 0.08 | 0.02 | 67 | 1019.1 |
| 20260905124204 | 69 | 282 | 14.0 | 25.0 | 0.00 | 0.08 | 0.02 | 65 | 1018.9 |
| 20260905123704 | 68 | 288 | 12.0 | 21.0 | 0.00 | 0.08 | 0.02 | 67 | 1018.8 |
| 20260905122703 | 69 | 283 | 16.0 | 25.0 | 0.00 | 0.08 | 0.02 | 64 | 1018.8 |
| 20260905122204 | 69 | 284 | 11.0 | 20.0 | 0.00 | 0.09 | 0.02 | 68 | 1018.7 |
| 20260905121704 | 68 | 273 | 11.0 | 21.0 | 0.00 | 0.09 | 0.02 | 68 | 1018.5 |
| 20260905121204 | 67 | 273 | 13.0 | 22.0 | 0.00 | 0.09 | 0.02 | 67 | 1018.6 |
| 20260905120704 | 68 | 274 | 12.0 | 20.0 | 0.00 | 0.09 | 0.02 | 66 | 1018.4 |
| 20260905115704 | 68 | 265 | 14.0 | 26.0 | 0.00 | 0.09 | 0.02 | 67 | 1018.3 |
| 20260905115204 | 67 | 284 | 13.0 | 20.0 | 0.00 | 0.10 | 0.02 | 67 | 1018.2 |
| 20260905114705 | 68 | 277 | 11.0 | 24.0 | 0.00 | 0.11 | 0.02 | 66 | 1018.2 |
| 20260905114204 | 69 | 283 | 20.0 | 32.0 | 0.00 | 0.12 | 0.02 | 66 | 1018.2 |
| 20260905113204 | 67 | 281 | 13.0 | 21.0 | 0.00 | 0.13 | 0.02 | 70 | 1018.0 |
| 20260905112703 | 67 | 280 | 13.0 | 20.0 | 0.00 | 0.14 | 0.02 | 70 | 1018.0 |
| 20260905112204 | 67 | 287 | 14.0 | 25.0 | 0.00 | 0.14 | 0.02 | 68 | 1017.8 |
| 20260905111704 | 68 | 285 | 13.0 | 20.0 | 0.00 | 0.14 | 0.02 | 67 | 1017.7 |
| 20260905111203 | 68 | 258 | 14.0 | 20.0 | 0.00 | 0.15 | 0.02 | 66 | 1017.7 |
| 20260905110704 | 69 | 266 | 13.0 | 26.0 | 0.00 | 0.15 | 0.02 | 64 | 1017.6 |
| 20260905105204 | 68 | 258 | 12.0 | 24.0 | 0.00 | 0.16 | 0.02 | 68 | 1017.5 |
| 20260905104704 | 69 | 266 | 12.0 | 22.0 | 0.00 | 0.17 | 0.02 | 68 | 1017.6 |
| 20260905104205 | 69 | 271 | 9.0 | 18.0 | 0.00 | 0.17 | 0.02 | 70 | 1017.3 |
| 20260905103200 | 67 | 276 | 10.0 | 17.0 | 0.00 | 0.17 | 0.02 | 73 | 1017.2 |
| 20260905102701 | 67 | 283 | 11.0 | 20.0 | 0.00 | 0.17 | 0.02 | 73 | 1017.2 |
| 20260905102201 | 68 | 291 | 12.0 | 23.0 | 0.00 | 0.18 | 0.02 | 70 | 1017.1 |
| 20260905101701 | 68 | 281 | 10.0 | 20.0 | 0.00 | 0.18 | 0.02 | 70 | 1017.0 |
| 20260905101201 | 67 | 288 | 13.0 | 17.0 | 0.00 | 0.19 | 0.02 | 71 | 1016.9 |
| 20260905100701 | 66 | 264 | 13.0 | 22.0 | 0.00 | 0.19 | 0.02 | 72 | 1016.9 |
| 20260905100201 | 66 | 291 | 13.0 | 24.0 | 0.00 | 0.19 | 0.02 | 72 | 1016.9 |
| 20260905095701 | 67 | 279 | 14.0 | 25.0 | 0.00 | 0.19 | 0.02 | 72 | 1016.8 |
| 20260905094201 | 67 | 278 | 13.0 | 18.0 | 0.00 | 0.25 | 0.02 | 72 | 1016.6 |
| 20260905093201 | 65 | 273 | 11.0 | 17.0 | 0.00 | 0.37 | 0.02 | 75 | 1016.4 |
| 20260905092701 | 66 | 277 | 11.0 | 20.0 | 0.00 | 0.38 | 0.02 | 74 | 1016.4 |
| 20260905092201 | 67 | 282 | 13.0 | 26.0 | 0.00 | 0.38 | 0.02 | 73 | 1016.4 |
| 20260905091702 | 68 | 284 | 10.0 | 20.0 | 0.00 | 0.39 | 0.02 | 72 | 1016.3 |
| 20260905090701 | 67 | 282 | 10.0 | 20.0 | 0.00 | 0.39 | 0.02 | 75 | 1016.2 |
| 20260905090202 | 67 | 273 | 6.0 | 14.0 | 0.00 | 0.39 | 0.02 | 76 | 1016.1 |
| 20260905085701 | 66 | 287 | 11.0 | 17.0 | 0.00 | 0.40 | 0.02 | 78 | 1016.0 |
| 20260905085201 | 64 | 251 | 10.0 | 17.0 | 0.00 | 0.40 | 0.02 | 80 | 1016.0 |
| 20260905084701 | 64 | 246 | 10.0 | 21.0 | 0.00 | 0.41 | 0.02 | 79 | 1015.9 |
| 20260905084201 | 64 | 259 | 10.0 | 17.0 | 0.00 | 0.42 | 0.02 | 79 | 1015.9 |
| 20260905083702 | 64 | 282 | 11.0 | 22.0 | 0.00 | 0.42 | 0.02 | 77 | 1015.8 |
| 20260905082701 | 65 | 290 | 12.0 | 24.0 | 0.00 | 0.43 | 0.02 | 79 | 1015.7 |
| 20260905082201 | 65 | 255 | 9.0 | 17.0 | 0.00 | 0.43 | 0.02 | 80 | 1015.4 |
| 20260905080702 | 64 | 256 | 10.0 | 21.0 | 0.00 | 0.44 | 0.02 | 83 | 1015.2 |
| 20260905080202 | 64 | 281 | 7.0 | 14.0 | 0.00 | 0.44 | 0.02 | 85 | 1015.2 |
| 20260905075702 | 63 | 275 | 10.0 | 18.0 | 0.00 | 0.44 | 0.02 | 86 | 1015.1 |
| 20260905075202 | 63 | 250 | 8.0 | 13.0 | 0.00 | 0.44 | 0.02 | 87 | 1015.1 |
| 20260905074702 | 63 | 241 | 8.0 | 16.0 | 0.00 | 0.44 | 0.02 | 89 | 1015.1 |
| 20260905074201 | 63 | 249 | 6.0 | 13.0 | 0.00 | 0.44 | 0.02 | 90 | 1015.0 |
| 20260905073202 | 62 | 268 | 6.0 | 12.0 | 0.00 | 0.44 | 0.02 | 91 | 1014.9 |
| 20260905072701 | 62 | 247 | 5.0 | 14.0 | 0.00 | 0.44 | 0.02 | 91 | 1014.7 |
| 20260905072202 | 62 | 239 | 6.0 | 12.0 | 0.00 | 0.44 | 0.02 | 91 | 1014.6 |
| 20260905071701 | 62 | 240 | 7.0 | 12.0 | 0.00 | 0.44 | 0.02 | 92 | 1014.6 |
| 20260905071202 | 62 | 250 | 8.0 | 14.0 | 0.00 | 0.44 | 0.02 | 92 | 1014.5 |
| 20260905070702 | 61 | 235 | 7.0 | 12.0 | 0.01 | 0.45 | 0.02 | 93 | 1014.5 |
| 20260905070201 | 61 | 246 | 6.0 | 10.0 | 0.01 | 0.45 | 0.02 | 93 | 1014.4 |
| 20260905065702 | 61 | 241 | 5.0 | 12.0 | 0.01 | 0.45 | 0.02 | 94 | 1014.4 |
| 20260905065202 | 60 | 245 | 6.0 | 12.0 | 0.01 | 0.45 | 0.02 | 94 | 1014.4 |
| 20260905064701 | 60 | 246 | 6.0 | 12.0 | 0.01 | 0.45 | 0.02 | 94 | 1014.4 |
| 20260905064201 | 60 | 238 | 6.0 | 10.0 | 0.01 | 0.45 | 0.02 | 94 | 1014.3 |
| 20260905063702 | 60 | 237 | 5.0 | 8.0 | 0.01 | 0.45 | 0.02 | 94 | 1014.3 |
| 20260905063202 | 60 | 241 | 4.0 | 7.0 | 0.01 | 0.45 | 0.02 | 94 | 1014.2 |
| 20260905062702 | 60 | 228 | 4.0 | 9.0 | 0.01 | 0.45 | 0.02 | 94 | 1014.2 |
| 20260905062201 | 60 | 245 | 5.0 | 8.0 | 0.01 | 0.45 | 0.02 | 94 | 1014.1 |
| 20260905061702 | 60 | 240 | 4.0 | 7.0 | 0.01 | 0.45 | 0.02 | 94 | 1014.2 |
| 20260905060702 | 59 | 235 | 3.0 | 5.0 | 0.00 | 0.44 | 0.01 | 94 | 1014.0 |
| 20260905060202 | 59 | 235 | 2.0 | 7.0 | 0.00 | 0.44 | 0.01 | 94 | 1013.9 |
| 20260905054702 | 59 | 246 | 3.0 | 7.0 | 0.00 | 0.44 | 0.01 | 94 | 1013.9 |
| 20260905054202 | 59 | 234 | 4.0 | 8.0 | 0.01 | 0.44 | 0.01 | 94 | 1013.9 |
| 20260905053702 | 59 | 219 | 3.0 | 8.0 | 0.01 | 0.44 | 0.01 | 94 | 1013.8 |
| 20260905053202 | 59 | 231 | 4.0 | 9.0 | 0.01 | 0.44 | 0.01 | 93 | 1013.8 |
| 20260905052702 | 59 | 233 | 5.0 | 9.0 | 0.01 | 0.44 | 0.01 | 93 | 1013.7 |
| 20260905052203 | 59 | 243 | 6.0 | 12.0 | 0.01 | 0.44 | 0.01 | 93 | 1013.8 |
| 20260905051701 | 59 | 237 | 3.0 | 6.0 | 0.01 | 0.44 | 0.01 | 93 | 1013.7 |
| 20260905051202 | 59 | 230 | 3.0 | 6.0 | 0.01 | 0.44 | 0.01 | 93 | 1013.7 |
| 20260905050202 | 59 | 245 | 5.0 | 12.0 | 0.01 | 0.44 | 0.01 | 92 | 1013.6 |
| 20260905045702 | 59 | 247 | 5.0 | 12.0 | 0.01 | 0.44 | 0.01 | 92 | 1013.5 |
| 20260905045202 | 59 | 251 | 6.0 | 12.0 | 0.01 | 0.44 | 0.01 | 92 | 1013.5 |
| 20260905044703 | 59 | 247 | 4.0 | 9.0 | 0.01 | 0.44 | 0.01 | 92 | 1013.5 |
| 20260905044202 | 59 | 246 | 3.0 | 7.0 | 0.00 | 0.43 | 0.00 | 92 | 1013.4 |
| 20260905043702 | 58 | 232 | 3.0 | 8.0 | 0.00 | 0.44 | 0.00 | 92 | 1013.4 |
| 20260905042702 | 58 | 233 | 3.0 | 8.0 | 0.00 | 0.44 | 0.00 | 92 | 1013.3 |
| 20260905042202 | 58 | 237 | 3.0 | 8.0 | 0.00 | 0.44 | 0.00 | 92 | 1013.3 |
| 20260905041702 | 58 | 244 | 5.0 | 8.0 | 0.00 | 0.45 | 0.00 | 92 | 1013.3 |
| 20260905041202 | 58 | 221 | 3.0 | 7.0 | 0.00 | 0.45 | 0.00 | 92 | 1013.2 |
| 20260905040703 | 57 | 233 | 3.0 | 6.0 | 0.00 | 0.45 | 0.00 | 92 | 1013.2 |
| 20260905040203 | 57 | 235 | 3.0 | 9.0 | 0.00 | 0.45 | 0.00 | 92 | 1013.2 |
| 20260905035702 | 57 | 236 | 3.0 | 7.0 | 0.00 | 0.45 | 0.00 | 92 | 1013.2 |
| 20260905035203 | 57 | 236 | 3.0 | 7.0 | 0.00 | 0.45 | 0.00 | 92 | 1013.2 |
| 20260905034202 | 56 | 226 | 3.0 | 6.0 | 0.00 | 0.46 | 0.00 | 92 | 1013.3 |
| 20260905033702 | 56 | 222 | 2.0 | 5.0 | 0.00 | 0.46 | 0.00 | 92 | 1013.2 |
| 20260905033203 | 56 | 223 | 2.0 | 5.0 | 0.00 | 0.50 | 0.00 | 92 | 1013.2 |
| 20260905032703 | 56 | 230 | 3.0 | 5.0 | 0.00 | 0.50 | 0.00 | 92 | 1013.2 |
| 20260905032202 | 56 | 229 | 2.0 | 5.0 | 0.00 | 0.50 | 0.00 | 92 | 1013.1 |
| 20260905031702 | 56 | 222 | 1.0 | 3.0 | 0.00 | 0.50 | 0.00 | 92 | 1013.1 |
| 20260905030702 | 56 | 217 | 1.0 | 6.0 | 0.00 | 0.50 | 0.00 | 92 | 1013.2 |
| 20260905030202 | 56 | 223 | 2.0 | 5.0 | 0.00 | 0.50 | 0.00 | 91 | 1013.2 |
| 20260905025702 | 56 | 216 | 2.0 | 3.0 | 0.00 | 0.50 | 0.00 | 91 | 1013.1 |
| 20260905025203 | 57 | 222 | 1.0 | 3.0 | 0.00 | 0.50 | 0.00 | 91 | 1013.1 |
| 20260905024703 | 57 | 215 | 1.0 | 2.0 | 0.00 | 0.50 | 0.00 | 91 | 1013.0 |
| 20260905024203 | 57 | 209 | 1.0 | 3.0 | 0.00 | 0.50 | 0.00 | 90 | 1013.0 |
| 20260905023703 | 57 | 212 | 1.0 | 2.0 | 0.00 | 0.50 | 0.00 | 90 | 1013.0 |
| 20260905022703 | 57 | 218 | 1.0 | 6.0 | 0.00 | 0.50 | 0.00 | 90 | 1012.9 |
| 20260905021703 | 58 | 218 | 2.0 | 3.0 | 0.00 | 0.50 | 0.00 | 89 | 1012.9 |
| 20260905021202 | 58 | 233 | 2.0 | 5.0 | 0.00 | 0.50 | 0.00 | 89 | 1012.9 |
| 20260905020704 | 58 | 216 | 2.0 | 5.0 | 0.00 | 0.50 | 0.00 | 89 | 1012.9 |
| 20260905020203 | 58 | 232 | 2.0 | 5.0 | 0.00 | 0.50 | 0.00 | 89 | 1012.9 |
| 20260905015702 | 58 | 237 | 3.0 | 5.0 | 0.00 | 0.50 | 0.00 | 89 | 1012.9 |
| 20260905014202 | 58 | 243 | 3.0 | 6.0 | 0.00 | 0.50 | 0.00 | 89 | 1012.7 |
| 20260905013703 | 58 | 239 | 3.0 | 6.0 | 0.00 | 0.50 | 0.00 | 89 | 1012.7 |
| 20260905013203 | 58 | 233 | 3.0 | 6.0 | 0.00 | 0.50 | 0.00 | 89 | 1012.7 |
| 20260905012703 | 58 | 240 | 3.0 | 6.0 | 0.00 | 0.50 | 0.00 | 89 | 1012.7 |
| 20260905012203 | 58 | 237 | 3.0 | 7.0 | 0.00 | 0.50 | 0.00 | 88 | 1012.7 |
| 20260905011703 | 58 | 239 | 3.0 | 7.0 | 0.00 | 0.50 | 0.00 | 88 | 1012.7 |
| 20260905011202 | 58 | 234 | 4.0 | 8.0 | 0.00 | 0.51 | 0.00 | 88 | 1012.7 |
| 20260905005703 | 59 | 236 | 3.0 | 5.0 | 0.00 | 0.51 | 0.00 | 87 | 1012.6 |
| 20260905005203 | 59 | 230 | 3.0 | 6.0 | 0.00 | 0.51 | 0.00 | 87 | 1012.6 |
| 20260905004703 | 59 | 241 | 3.0 | 5.0 | 0.00 | 0.51 | 0.00 | 86 | 1012.6 |
| 20260905004203 | 59 | 241 | 3.0 | 6.0 | 0.00 | 0.51 | 0.00 | 86 | 1012.6 |
| 20260905003703 | 59 | 233 | 3.0 | 8.0 | 0.00 | 0.52 | 0.00 | 86 | 1012.6 |
| 20260905003203 | 59 | 237 | 4.0 | 8.0 | 0.00 | 0.52 | 0.00 | 86 | 1012.6 |
| 20260905002704 | 59 | 233 | 5.0 | 8.0 | 0.00 | 0.52 | 0.00 | 85 | 1012.6 |
| 20260905001205 | 60 | 245 | 3.0 | 9.0 | 0.00 | 0.55 | 0.00 | 85 | 1012.5 |
| 20260904235703 | 60 | 251 | 4.0 | 10.0 | 0.00 | 0.55 | 0.00 | 84 | 1012.4 |
| 20260904235203 | 60 | 245 | 5.0 | 10.0 | 0.00 | 0.55 | 0.00 | 84 | 1012.4 |